[ hide orbit diagram ]
For accurate long-term ephemerides, please instead use our Horizons system.This orbit viewer was implemented using two-body methods, and hence should not be used for determining accurate long-term trajectories (over several years or decades) or planetary encounter circumstances.
|
Orbital Elements at Epoch 2455168.5 (2009-Dec-03.0) TDB
Reference: JPL K162/1 (heliocentric ecliptic J2000)
Element | Value | Uncertainty (1-sigma) | Units |
e | .3623455624836588 | 1.5845e-06 | |
a | 3.443437251363689 | 1.311e-05 | au |
q | 2.195723043641129 | 3.8834e-06 | au |
i | 14.32165437252401 | 4.1613e-05 | deg |
node | 13.68456209223027 | 3.6553e-05 | deg |
peri | 6.540056514329597 | 0.0008594 | deg |
M | 6.576334654342131 | 0.00038936 | deg |
tp | 2455125.864820917468 (2009-Oct-21.36482092) | 0.0024652 | TDB |
period | 2333.923876513388 6.39 | 0.013329 3.649e-05 | d yr |
n | .1542466760046168 | 8.809e-07 | deg/d |
Q | 4.691151459086249 | 1.7861e-05 | au |
|
Additional Model Parameters
Parameter | Value | Uncertainty (1-sigma) |
A1 [EST] | 6.095811191204703E-9 | 4.53E-9 |
A2 [EST] | -1.607159112276551E-8 | 2.159E-9 |
|
| | Orbit Determination Parameters
Additional Information
|
[ show covariance matrix ]
127P/Holt-Olmstead Discovered 1990-Sep-14 by Holt, Henry E. and Olmstead, C. Michelle at Palomar Mountain Observatory, California |
discovered on plate/photo taken on discovery date as well as 9/17 |
Reference: comet.dis | Last Updated: 2003-08-29 |
|
[ show close-approach data ]
Alternate Designations
Perihelion Year (est.) | New-Style Desig | Roman Numeral | Year/ Letter | 1997.0 | 127P/1996 S1 | | |
1990.6 | 127P/1990 R2 | 1990 XVIII | 1990k |
|
|